Time,TemperatureF,DewpointF,PressureIn,WindDirection,WindDirectionDegrees,WindSpeedMPH,WindSpeedGustMPH,Humidity,HourlyPrecipIn,Conditions,Clouds,dailyrainin,SoftwareType,DateUTC
2015-08-31 00:04:00,70.0,-99.9,-100.00,SW,230,2.0,4.0,-999,-99.99,,,-99.99,,2015-08-31 04:04:00,
2015-08-31 00:17:00,70.0,-99.9,-100.00,WSW,240,2.0,-999.0,-999,-99.99,,,-99.99,,2015-08-31 04:17:00,
2015-08-31 00:34:00,69.0,-99.9,-100.00,South,185,0.0,3.0,-999,-99.99,,,-99.99,,2015-08-31 04:34:00,
2015-08-31 00:44:00,69.0,-99.9,-100.00,SSW,205,1.0,2.0,-999,-99.99,,,-99.99,,2015-08-31 04:44:00,
2015-08-31 01:04:00,69.0,-99.9,-100.00,SSW,195,3.0,3.0,-999,-99.99,,,-99.99,,2015-08-31 05:04:00,
2015-08-31 01:26:00,68.0,-99.9,-100.00,SW,225,4.0,6.0,-999,-99.99,,,-99.99,,2015-08-31 05:26:00,
2015-08-31 01:36:00,69.0,-99.9,-100.00,SW,225,3.0,6.0,-999,-99.99,,,-99.99,,2015-08-31 05:36:00,
2015-08-31 01:44:00,68.0,-99.9,-100.00,SSW,210,1.0,3.0,-999,-99.99,,,-99.99,,2015-08-31 05:44:00,
2015-08-31 02:02:00,69.0,-99.9,-100.00,SW,235,4.0,4.0,-999,-99.99,,,-99.99,,2015-08-31 06:02:00,
2015-08-31 02:04:00,68.0,-99.9,-100.00,WSW,250,1.0,3.0,-999,-99.99,,,-99.99,,2015-08-31 06:04:00,
2015-08-31 02:14:00,69.0,-99.9,-100.00,WSW,255,2.0,3.0,-999,-99.99,,,-99.99,,2015-08-31 06:14:00,
2015-08-31 02:24:00,69.0,-99.9,-100.00,SW,235,4.0,4.0,-999,-99.99,,,-99.99,,2015-08-31 06:24:00,
2015-08-31 02:34:00,69.0,-99.9,-100.00,SW,235,4.0,4.0,-999,-99.99,,,-99.99,,2015-08-31 06:34:00,
2015-08-31 02:44:00,69.0,-99.9,-100.00,SW,235,4.0,4.0,-999,-99.99,,,-99.99,,2015-08-31 06:44:00,
2015-08-31 02:54:00,69.0,-99.9,-100.00,SW,235,4.0,4.0,-999,-99.99,,,-99.99,,2015-08-31 06:54:00,
2015-08-31 03:44:00,68.0,-99.9,-100.00,SSW,205,1.0,2.0,-999,-99.99,,,-99.99,,2015-08-31 07:44:00,
2015-08-31 03:54:00,67.0,-99.9,-100.00,SSW,210,2.0,3.0,-999,-99.99,,,-99.99,,2015-08-31 07:54:00,
2015-08-31 04:04:00,67.0,-99.9,-100.00,SSW,200,1.0,2.0,-999,-99.99,,,-99.99,,2015-08-31 08:04:00,
2015-08-31 04:13:00,67.0,-99.9,-100.00,West,275,2.0,2.0,-999,-99.99,,,-99.99,,2015-08-31 08:13:00,
2015-08-31 04:23:00,67.0,-99.9,-100.00,WSW,255,2.0,4.0,-999,-99.99,,,-99.99,,2015-08-31 08:23:00,
2015-08-31 04:34:00,68.0,-99.9,-100.00,West,260,3.0,4.0,-999,-99.99,,,-99.99,,2015-08-31 08:34:00,
2015-08-31 04:44:00,67.0,-99.9,-100.00,WSW,250,2.0,4.0,-999,-99.99,,,-99.99,,2015-08-31 08:44:00,
2015-08-31 04:54:00,67.0,-99.9,-100.00,WSW,245,5.0,6.0,-999,-99.99,,,-99.99,,2015-08-31 08:54:00,
2015-08-31 05:03:00,67.0,-99.9,-100.00,West,270,4.0,6.0,-999,-99.99,,,-99.99,,2015-08-31 09:03:00,
2015-08-31 05:13:00,67.0,-99.9,-100.00,West,260,4.0,5.0,-999,-99.99,,,-99.99,,2015-08-31 09:13:00,
2015-08-31 05:23:00,67.0,-99.9,-100.00,West,270,4.0,5.0,-999,-99.99,,,-99.99,,2015-08-31 09:23:00,
2015-08-31 05:36:00,67.0,-99.9,-100.00,WSW,255,2.0,-999.0,-999,-99.99,,,-99.99,,2015-08-31 09:36:00,
2015-08-31 05:44:00,67.0,-99.9,-100.00,WSW,250,2.0,4.0,-999,-99.99,,,-99.99,,2015-08-31 09:44:00,
2015-08-31 05:54:00,67.0,-99.9,-100.00,West,280,0.0,3.0,-999,-99.99,,,-99.99,,2015-08-31 09:54:00,
2015-08-31 06:04:00,67.0,-99.9,-100.00,SW,235,2.0,3.0,-999,-99.99,,,-99.99,,2015-08-31 10:04:00,
2015-08-31 06:13:00,67.0,-99.9,-100.00,SSW,210,3.0,3.0,-999,-99.99,,,-99.99,,2015-08-31 10:13:00,
2015-08-31 06:23:00,66.0,-99.9,-100.00,SSW,195,2.0,4.0,-999,-99.99,,,-99.99,,2015-08-31 10:23:00,
2015-08-31 06:34:00,66.0,-99.9,-100.00,SSW,210,2.0,3.0,-999,-99.99,,,-99.99,,2015-08-31 10:34:00,
2015-08-31 06:44:00,67.0,-99.9,-100.00,WSW,240,3.0,4.0,-999,-99.99,,,-99.99,,2015-08-31 10:44:00,
2015-08-31 06:54:00,67.0,-99.9,-100.00,SW,235,4.0,4.0,-999,-99.99,,,-99.99,,2015-08-31 10:54:00,
2015-08-31 07:04:00,67.0,-99.9,-100.00,WSW,245,4.0,5.0,-999,-99.99,,,-99.99,,2015-08-31 11:04:00,
2015-08-31 07:13:00,67.0,-99.9,-100.00,WSW,245,2.0,4.0,-999,-99.99,,,-99.99,,2015-08-31 11:13:00,
2015-08-31 07:24:00,67.0,-99.9,-100.00,SW,225,1.0,4.0,-999,-99.99,,,-99.99,,2015-08-31 11:24:00,
2015-08-31 07:34:00,66.0,-99.9,-100.00,SW,225,2.0,3.0,-999,-99.99,,,-99.99,,2015-08-31 11:34:00,
2015-08-31 07:44:00,67.0,-99.9,-100.00,WSW,240,3.0,4.0,-999,-99.99,,,-99.99,,2015-08-31 11:44:00,
2015-08-31 07:54:00,67.0,-99.9,-100.00,SW,235,2.0,3.0,-999,-99.99,,,-99.99,,2015-08-31 11:54:00,
2015-08-31 08:04:00,67.0,-99.9,-100.00,SW,235,2.0,3.0,-999,-99.99,,,-99.99,,2015-08-31 12:04:00,
2015-08-31 08:14:00,69.0,-99.9,-100.00,West,260,1.0,3.0,-999,-99.99,,,-99.99,,2015-08-31 12:14:00,
2015-08-31 08:24:00,69.0,-99.9,-100.00,West,270,2.0,4.0,-999,-99.99,,,-99.99,,2015-08-31 12:24:00,
2015-08-31 08:34:00,68.0,-99.9,-100.00,West,275,4.0,4.0,-999,-99.99,,,-99.99,,2015-08-31 12:34:00,
2015-08-31 08:44:00,69.0,-99.9,-100.00,West,270,4.0,6.0,-999,-99.99,,,-99.99,,2015-08-31 12:44:00,
2015-08-31 08:54:00,70.0,-99.9,-100.00,West,275,4.0,6.0,-999,-99.99,,,-99.99,,2015-08-31 12:54:00,
2015-08-31 09:04:00,70.0,-99.9,-100.00,West,280,4.0,6.0,-999,-99.99,,,-99.99,,2015-08-31 13:04:00,
2015-08-31 09:14:00,71.0,-99.9,-100.00,WNW,285,6.0,8.0,-999,-99.99,,,-99.99,,2015-08-31 13:14:00,
2015-08-31 09:24:00,72.0,-99.9,-100.00,WNW,285,4.0,6.0,-999,-99.99,,,-99.99,,2015-08-31 13:24:00,
2015-08-31 09:34:00,73.0,-99.9,-100.00,WNW,295,3.0,6.0,-999,-99.99,,,-99.99,,2015-08-31 13:34:00,
2015-08-31 09:44:00,74.0,-99.9,-100.00,WNW,290,4.0,6.0,-999,-99.99,,,-99.99,,2015-08-31 13:44:00,
2015-08-31 09:54:00,74.0,-99.9,-100.00,West,270,4.0,7.0,-999,-99.99,,,-99.99,,2015-08-31 13:54:00,
2015-08-31 10:04:00,74.0,-99.9,-100.00,West,275,6.0,8.0,-999,-99.99,,,-99.99,,2015-08-31 14:04:00,
2015-08-31 10:13:00,75.0,-99.9,-100.00,WNW,290,6.0,8.0,-999,-99.99,,,-99.99,,2015-08-31 14:13:00,
2015-08-31 10:23:00,75.0,75.0,-100.00,WNW,290,4.0,9.0,98,-99.99,,,-99.99,,2015-08-31 14:23:00,
2015-08-31 10:44:00,76.0,-99.9,-100.00,NW,305,7.0,9.0,-999,-99.99,,,-99.99,,2015-08-31 14:44:00,
2015-08-31 10:53:00,77.0,76.0,-100.00,WNW,285,7.0,9.0,98,-99.99,,,-99.99,,2015-08-31 14:53:00,
2015-08-31 11:03:00,78.0,77.0,-100.00,NNW,330,7.0,11.0,98,-99.99,,,-99.99,,2015-08-31 15:03:00,
2015-08-31 11:13:00,78.0,-99.9,-100.00,NW,305,6.0,9.0,-999,-99.99,,,-99.99,,2015-08-31 15:13:00,
2015-08-31 11:34:00,78.0,-99.9,-100.00,NW,320,3.0,9.0,-999,-99.99,,,-99.99,,2015-08-31 15:34:00,
2015-08-31 11:44:00,79.0,-99.9,-100.00,NW,325,3.0,7.0,-999,-99.99,,,-99.99,,2015-08-31 15:44:00,
2015-08-31 11:54:00,79.0,-99.9,-100.00,WNW,290,5.0,8.0,-999,-99.99,,,-99.99,,2015-08-31 15:54:00,
2015-08-31 12:04:00,81.0,-99.9,-100.00,West,265,4.0,7.0,-999,-99.99,,,-99.99,,2015-08-31 16:04:00,
2015-08-31 12:13:00,81.0,-99.9,-100.00,WNW,290,1.0,6.0,-999,-99.99,,,-99.99,,2015-08-31 16:13:00,
2015-08-31 12:23:00,82.0,-99.9,-100.00,NNW,335,4.0,7.0,-999,-99.99,,,-99.99,,2015-08-31 16:23:00,
2015-08-31 12:44:00,80.0,-99.9,-100.00,WNW,285,6.0,9.0,-999,-99.99,,,-99.99,,2015-08-31 16:44:00,